Location: *
(28.3744°N, 81.5492°W)
Time: 04:12:50
(UTC+00:00)

Intelsat 5-3 Rocket - Pass Details

Date: 15 June 2025
Orbit: 280 x 4960 km, 23.5° (Epoch: 11 July)

Event Time Altitude Azimuth Distance (km) Brightness Sun altitude
Exits shadow 07:34:45 -6° 99° (E) 2,761 6.3 -29.8°
Enters shadow 09:26:45 -51° 266° (W) 12,685 9.0 -12.5°
Maximum altitude 09:58:45 32° 169° (S) 704 2.7 -6.6°
